Location: Gradaro
(45.0833°N, 10.8833°E)
Time: 21:20:14
(UTC+00:00)

FENGYUN 1C DEB - Pass Details

Date: 25 June 2021
Orbit: 744 x 851 km, 99.4° (Epoch: 27 July)

Event Time Altitude Azimuth Distance (km) Brightness Sun altitude
Exits shadow 23:39:07 42° 158° (SSE) 1,157 ? -21.4°
Maximum altitude 23:41:01 85° 74° (ENE) 829 ? -21.4°
Drops below altitude 10° 23:46:19 10° 346° (NNW) 2,390 ? -21.3°
Sets 23:48:37 0° 346° (NNW) 3,309 ? -21.2°
